SCP
0 0 0 0 0 0 0 0 0 0 0 0 0 0 0 0 0 0 0 0 0 0 0 0 1 1 1 2 4 4 5 7 7 6 5 3 3 3 3 3 2 1 1 1
0 0 0 0 0 0 0 0 0 0 0 0 0 0 0 0 0 0 0 0 0 0 0 0 0 1 1 1 2 3 5 6 7 6 4 3 2 2 3 3 2 1 1 1
0 0 0 0 0 0 0 0 0 0 0 0 0 0 0 0 0 0 0 0 0 0 0 0 0 0 0 1 1 2 4 5 5 5 3 2 2 2 2 2 1 1 1 0
0 0 0 0 0 0 0 0 0 0 0 0 0 0 0 0 0 0 0 0 0 0 0 0 0 0 0 0 1 2 3 5 5 4 3 2 1 1 2 2 1 1 1 1
0 0 0 0 0 0 0 0 0 0 0 0 0 0 0 0 0 0 0 0 0 0 0 0 0 0 0 0 1 1 3 4 4 4 3 1 1 1 1 1 1 1 1 1
0 0 0 0 0 0 0 0 0 0 0 0 0 0 0 0 0 0 0 0 0 0 0 0 0 0 0 0 0 1 2 3 4 4 2 1 1 1 1 1 0 1 1 1
0 0 0 0 0 0 0 0 0 0 0 0 0 0 0 0 0 0 0 0 0 0 0 0 0 0 0 0 0 0 1 2 3 3 2 1 0 0 1 1 0 0 1 1
0 0 0 0 0 0 0 0 0 0 0 0 0 0 0 0 0 0 0 0 0 0 0 0 0 0 0 0 0 0 1 2 3 3 2 1 0 0 0 0 0 0 1 1
0 0 0 0 0 0 0 0 0 0 0 0 0 0 0 0 0 0 0 0 0 0 0 0 0 0 0 0 0 0 0 1 1 2 1 1 0 0 1 1 0 0 0 1
0 0 0 0 0 0 0 0 0 0 0 0 0 0 0 0 0 0 0 0 0 0 0 0 0 0 0 0 0 0 0 0 1 1 1 1 1 1 1 1 1 0 0 1
0 0 0 0 0 0 0 0 0 0 0 0 0 0 0 0 0 0 0 0 0 0 0 0 0 0 0 0 0 0 0 0 0 1 1 1 1 1 1 0 0 0 0 0
0 0 0 0 0 0 0 0 0 0 0 0 0 0 0 0 0 0 0 0 0 0 0 0 0 0 0 0 0 0 0 0 0 1 1 1 1 0 0 0 0 0 0 0
0 0 0 0 0 0 0 0 0 0 0 0 0 0 0 0 0 0 0 0 0 0 0 0 0 0 0 0 0 0 0 0 0 0 1 1 1 0 0 0 0 0 0 0
0 0 0 0 0 0 0 0 0 0 0 0 0 0 0 0 0 0 0 0 0 0 0 0 0 0 0 0 0 0 0 0 0 0 0 0 0 0 0 0 0 0 0 0
0 0 0 0 0 0 0 0 0 0 0 0 0 0 0 0 0 0 0 0 0 0 0 0 0 0 0 0 0 0 0 0 0 0 0 0 0 0 0 0 0 0 0 0
0 0 0 0 0 0 0 0 0 0 0 0 0 0 0 0 0 0 0 0 0 0 0 0 0 0 0 0 0 0 0 0 0 0 0 0 0 0 0 0 0 0 0 0
0 0 0 0 0 0 0 0 0 0 0 0 0 0 0 0 0 0 0 0 0 0 0 0 0 0 0 0 0 0 0 0 0 0 0 0 0 0 0 0 0 0 0 0
0 0 0 0 0 0 0 0 0 0 0 0 0 0 0 0 0 0 0 0 0 0 0 0 0 0 0 0 0 0 0 0 0 0 0 0 0 0 0 0 0 0 0 0
0 0 0 0 0 0 0 0 0 0 0 0 0 0 0 0 0 0 0 0 0 0 0 0 0 0 0 0 0 0 0 0 0 0 0 0 0 0 0 0 0 0 0 0
0 0 0 0 0 0 0 0 0 0 0 0 0 0 0 0 0 0 0 0 0 0 0 0 0 0 0 0 0 0 0 0 0 0 0 0 0 0 0 0 0 0 0 0
0 0 0 0 0 0 0 0 0 0 0 0 0 0 0 0 0 0 0 0 0 0 0 0 0 0 0 0 0 0 0 0 0 0 0 0 0 0 0 0 0 0 0 0
0 0 0 0 0 0 0 0 0 0 0 0 0 0 0 0 0 0 0 0 0 0 0 0 0 0 0 0 0 0 0 0 0 0 0 0 0 0 0 0 0 0 0 0
0 0 0 0 0 0 0 0 0 0 0 0 0 0 0 0 0 0 0 0 0 0 0 0 0 0 0 0 0 0 0 0 0 0 0 0 0 0 0 0 0 0 0 0
0 0 0 0 0 0 0 0 0 0 0 0 0 0 0 0 0 0 0 0 0 0 0 0 0 0 0 0 0 0 0 0 0 0 0 0 0 0 0 0 0 0 0 0
0 0 0 0 0 0 0 0 0 0 0 0 0 0 0 0 0 0 0 0 0 0 0 0 0 0 0 0 0 0 0 0 0 0 0 0 0 0 0 0 0 0 0 0
0 0 0 0 0 0 0 0 0 0 0 0 0 0 0 0 0 0 0 0 0 0 0 0 0 0 0 0 0 0 0 0 0 0 0 0 0 0 0 0 0 0 0 0
Wind_Speed
2 3 2 5 5 5 5 6 12 12 10 9 12 16 15 11 7 7 8 8 9 11 10 8 8 9 8 6 7 6 6 7 6 5 5 6 6 6 7 7 10 12 12 13
4 3 6 4 4 4 5 8 10 12 7 10 12 15 10 8 5 5 7 9 9 11 11 10 10 9 7 6 7 7 7 7 7 6 5 5 6 6 7 7 10 13 13 14
4 6 4 3 4 5 7 7 8 12 13 6 7 9 5 6 4 5 6 7 8 9 10 11 10 10 8 7 7 7 7 8 8 6 5 4 4 4 5 7 8 11 13 14
4 5 3 4 5 4 8 7 9 11 8 6 3 8 7 7 7 7 7 8 9 9 8 9 9 10 10 9 8 8 7 8 7 5 5 6 6 7 7 6 7 10 13 15
5 3 3 5 6 3 7 7 9 9 5 5 3 4 10 5 7 9 8 8 9 8 8 9 9 9 9 9 9 8 8 7 6 5 6 7 6 6 5 6 9 11 11 14
6 4 3 4 3 3 4 5 5 3 3 3 4 3 9 4 6 8 8 8 9 8 8 8 8 9 9 9 9 8 8 7 5 5 6 6 7 6 6 7 9 9 9 10
7 5 3 0 2 3 4 5 6 8 5 7 4 4 10 6 5 5 7 8 8 8 8 9 10 10 10 11 11 10 9 8 6 5 5 6 7 7 7 7 9 9 8 8
4 8 4 1 2 2 1 4 3 3 6 7 5 7 9 6 5 6 6 6 7 8 8 9 9 9 9 10 11 10 10 9 8 6 6 5 6 5 6 7 8 9 9 9
4 8 4 3 2 3 1 2 4 3 4 6 8 8 9 5 6 6 6 6 7 8 8 9 10 10 10 10 10 9 9 10 9 8 6 6 6 6 7 8 8 8 8 9
6 6 6 5 2 1 4 4 3 2 3 7 9 7 7 7 7 7 7 7 8 9 9 9 9 10 10 9 10 9 9 9 9 8 5 4 4 6 6 6 7 8 9 9
4 4 6 3 4 5 2 2 3 3 4 4 8 10 6 7 7 7 8 8 8 9 9 9 9 9 9 9 9 10 10 10 9 8 6 5 5 5 6 6 7 6 7 8
4 4 6 9 6 3 5 6 6 4 6 5 6 13 6 7 7 7 8 9 9 9 9 8 9 9 9 10 10 10 9 9 9 9 7 5 5 4 4 4 5 4 5 7
6 4 4 7 3 1 2 4 5 4 4 6 9 14 4 5 8 8 9 9 9 9 9 9 8 8 9 9 10 10 10 10 9 8 7 6 4 2 2 3 3 4 5 6
6 6 9 11 8 4 6 7 6 6 7 10 14 19 17 14 13 11 10 10 9 9 9 8 8 8 9 9 9 9 9 9 10 9 8 6 5 3 2 2 3 4 4 5
5 7 9 13 12 10 13 16 12 14 15 15 18 19 22 17 13 11 10 9 9 9 10 9 9 9 9 9 9 9 9 9 9 9 8 7 5 4 2 1 2 3 4 4
5 6 5 11 11 13 19 20 18 18 17 19 20 23 19 15 10 9 9 9 9 10 10 10 10 10 9 9 9 9 9 9 8 8 7 7 5 5 3 2 1 2 2 3
6 5 5 9 6 7 15 16 15 12 11 11 17 19 12 10 9 9 8 7 8 9 9 9 9 8 8 8 8 9 9 9 8 8 7 6 6 5 4 3 2 2 2 2
8 6 5 6 3 13 13 6 8 11 13 13 13 12 11 11 9 8 7 6 8 8 8 8 7 7 7 7 7 8 8 8 8 8 8 7 6 5 4 3 3 3 2 2
11 9 6 4 7 14 11 6 6 8 11 10 11 12 9 7 5 6 5 5 6 6 6 6 6 6 7 8 8 8 8 8 7 8 8 7 6 6 5 4 4 3 2 2
7 8 7 7 7 11 10 5 3 2 9 8 7 9 7 1 4 7 5 5 6 6 5 5 6 6 6 7 7 7 8 8 8 8 8 7 6 6 5 4 4 4 3 3
5 7 11 11 11 13 9 4 4 4 10 5 5 7 5 6 8 7 6 6 6 6 6 5 5 5 6 7 7 7 8 8 8 8 8 7 6 6 5 5 3 3 3 2
11 8 9 8 11 15 6 7 9 11 5 4 5 6 6 7 8 7 7 6 6 5 5 5 4 5 6 6 6 7 8 9 8 7 8 7 7 6 4 4 3 2 2 2
11 12 9 12 13 7 6 9 8 4 5 6 5 6 6 6 7 7 6 6 6 6 5 5 5 6 6 5 5 7 8 9 8 7 7 7 7 6 4 4 3 3 2 1
7 5 6 8 11 10 8 7 6 6 7 7 6 6 5 6 7 7 6 5 5 5 5 4 4 5 6 6 5 6 7 8 7 7 7 6 6 6 5 4 2 2 2 1
8 7 6 9 9 6 7 9 10 8 6 6 5 5 6 6 6 6 5 6 5 5 4 4 4 5 6 6 6 6 6 7 7 6 5 5 5 5 5 4 3 3 3 3
8 9 9 11 9 7 7 6 7 7 7 6 6 5 5 5 6 6 6 5 5 4 4 4 5 5 6 6 6 6 6 6 6 6 5 4 4 4 4 4 5 5 4 4
Wind_Direction
38 70 242 238 218 229 259 272 282 282 288 297 280 286 294 301 309 307 309 311 309 305 303 310 308 307 301 302 299 287 279 264 242 228 220 220 227 220 213 209 205 200 198 200
26 273 244 243 259 270 277 284 283 292 297 299 286 286 286 288 291 297 306 312 315 320 327 325 326 328 315 305 308 296 277 271 252 230 223 218 225 226 213 211 210 203 198 200
226 249 259 278 290 292 285 262 272 289 312 303 306 297 286 302 307 320 316 308 312 323 324 322 328 329 325 321 313 299 283 274 260 244 227 227 231 235 217 211 212 205 200 201
266 266 281 289 279 267 281 258 275 291 311 298 340 300 294 300 317 325 321 321 320 318 322 325 335 336 330 323 318 307 288 279 267 248 225 219 228 232 228 218 216 206 204 199
270 270 273 270 264 241 254 283 286 285 268 285 277 251 288 317 312 313 314 315 318 322 325 327 336 329 326 325 324 315 301 283 268 248 233 225 231 241 236 223 218 210 205 196
260 269 252 247 272 249 296 329 321 6 58 295 256 225 285 284 285 305 313 317 319 325 326 328 332 329 331 334 329 322 316 298 276 256 239 233 231 234 233 228 217 206 201 194
317 300 282 257 335 342 34 37 2 354 357 266 285 258 257 262 274 286 303 311 319 325 332 330 331 331 333 335 331 325 320 309 292 264 249 239 239 230 226 231 219 211 201 196
316 296 276 264 207 238 270 125 145 260 271 291 300 256 258 263 283 293 297 308 322 329 330 330 326 324 327 327 325 326 325 317 307 285 264 249 246 235 231 228 219 215 206 200
216 267 290 276 246 162 160 201 185 183 278 280 271 277 292 284 303 304 308 319 319 322 325 327 328 328 326 324 320 317 322 323 315 301 279 259 246 246 238 224 217 215 206 199
180 264 283 299 320 261 171 160 98 123 281 282 286 272 264 292 297 301 309 310 311 319 323 327 328 326 324 319 317 322 320 317 315 305 289 284 271 254 236 215 220 221 205 198
162 223 294 314 217 215 163 156 157 180 203 234 283 272 235 250 269 285 293 297 304 313 316 319 322 324 321 323 326 326 324 323 325 319 308 298 275 252 232 217 216 212 203 194
183 180 263 258 250 222 192 191 166 194 244 222 254 272 247 248 267 281 292 300 305 307 309 314 319 325 328 327 327 326 323 325 327 324 313 301 276 248 227 218 214 212 207 199
165 168 298 319 327 334 228 216 200 206 226 232 244 266 275 294 301 299 297 299 302 305 312 318 324 328 327 326 324 324 327 327 327 328 324 321 309 278 241 216 213 218 217 209
170 188 204 231 240 216 252 252 220 204 234 248 242 262 283 290 293 296 297 297 300 302 309 316 320 322 323 325 325 323 324 327 330 332 334 331 322 313 282 247 217 218 218 214
179 232 237 251 261 258 256 259 242 228 231 241 258 264 273 279 283 284 287 292 301 307 312 315 317 318 321 327 329 328 327 330 330 332 332 325 317 321 307 276 250 225 217 221
193 239 256 266 255 257 265 261 250 244 240 243 259 268 268 276 277 281 285 290 297 303 308 314 317 320 322 325 327 327 327 327 327 326 325 325 325 328 316 290 297 254 237 226
200 209 245 268 274 285 262 246 235 230 224 222 244 257 274 282 277 274 276 281 286 293 302 308 310 311 316 320 323 323 321 323 325 322 322 327 328 323 317 309 304 280 270 243
197 201 230 269 290 251 247 228 221 235 247 237 245 260 266 264 270 271 264 267 278 287 296 301 305 309 311 315 320 322 323 322 322 327 326 326 329 320 319 310 290 278 267 265
199 197 220 239 256 271 279 251 207 217 258 241 240 258 268 274 298 290 271 266 265 274 283 285 289 294 306 314 319 326 327 328 329 328 325 324 322 321 316 312 301 288 278 287
190 195 214 223 240 254 253 237 185 132 274 254 225 248 263 271 288 279 280 279 278 282 286 288 294 300 309 314 322 328 328 330 329 324 319 316 313 310 308 300 298 295 276 276
174 203 220 229 244 261 254 216 134 200 249 247 220 234 233 220 235 262 280 277 273 279 285 291 298 303 305 313 324 326 325 323 317 314 316 315 314 309 303 304 297 295 284 277
189 195 207 206 229 250 217 160 194 223 237 237 229 226 233 245 259 267 269 271 278 285 290 294 296 300 304 312 322 321 318 314 315 315 320 321 319 317 316 314 308 301 284 244
206 202 198 204 222 236 191 204 225 221 230 241 237 238 239 251 259 264 264 266 271 275 280 286 287 297 304 308 312 310 310 317 319 320 321 321 323 323 321 317 316 318 298 247
235 201 206 241 253 249 247 248 253 240 239 246 241 241 238 248 259 265 266 270 273 275 277 281 291 299 305 307 307 302 308 317 320 318 316 320 324 324 321 319 313 312 296 268
217 190 212 245 260 273 259 241 244 249 248 249 248 246 244 248 259 259 262 266 269 274 279 280 282 289 297 305 309 312 316 320 319 313 310 314 315 315 315 318 313 302 283 273
207 202 211 239 231 223 245 240 235 240 243 241 243 252 255 246 254 258 259 262 265 270 277 283 287 293 298 304 307 310 316 316 315 313 312 310 308 309 311 316 320 315 296 300